Tracking 20232 objects as of 21-Jan-2020
HD Live streaming from Space Station
objects crossing your sky now

BLOCK DM-SL R/B

Track BLOCK DM-SL R/B now!


NORAD ID: 39774
Int'l Code: 2014-030B
Perigee: 397.1 km
Apogee: 35,477.6 km
Inclination: 0.7 °
Period: 628.6 minutes
Semi major axis: 24308 km
RCS: Unknown
Launch date: May 26, 2014
Source: Sea Launch (SEAL)
Launch site: SEA LAUNCH (SEAL)

Note: This is a ROCKET BODY
aabbcc
Your satellite tracking list
Your tracking list is empty




NASA's NSSDC Master Catalog

Two Line Element Set (TLE):
1 39774U 14030B   20020.78610598 -.00000079 +00000-0 +28642-3 0  9998
2 39774 000.7022 035.4522 7215716 295.0361 003.2380 02.29070619047226
Source of the keplerian elements: AFSPC